Regional Weather Roundup
Issued by NWS

Home | Current Version | Previous Version | Graphics & Text | Print | Product List | Glossary On
Versions: 1 2 3 4 5 6 7 8 9 10 11 12 13 14 15 16 17 18 19 20 21 22 23 24 25 26 27 28
000
ASUS45 KTFX 280210
RWRMT
MONTANA REGIONAL WEATHER ROUNDUP
NATIONAL WEATHER SERVICE GREAT FALLS MT
800 PM MDT SAT AUG 27 2016

NOTE: "FAIR" INDICATES FEW OR NO CLOUDS BELOW 12000 FEET WITH NO
SIGNIFICANT WEATHER AND/OR OBSTRUCTIONS TO VISIBILITY.

MTZ001>007-043-280300-
WEST OF THE DIVIDE

CITY           SKY/WX    TMP DP  RH WIND       PRES   REMARKS
KALISPELL      CLOUDY    75  43  31 SW8       29.72R
MISSOULA       MOCLDY    81  38  21 W16       29.80R
BUTTE          CLEAR     75  29  18 W7        29.93S
MULLAN PASS    CLOUDY    61  36  39 SW10G18   29.96S
DEER LODGE       N/A     75  36  23 SW3       29.89R
EUREKA           N/A     75  43  31 E5        29.71F
HAMILTON         N/A     82  36  18 SW8       29.83R
LIBBY            N/A     77  43  29 SE7       29.74R
PLAINS           N/A     80  41  25 SW15      29.79R
RONAN            N/A     78  41  26 S9        29.85R
THOMPSON FALLS   N/A     80  40  24 SW13      29.81
$$

MTZ008-052>055-280300-
SOUTHWEST MONTANA

CITY           SKY/WX    TMP DP  RH WIND       PRES   REMARKS
BOZEMAN        CLOUDY    79  33  19 SW10      29.87R
DILLON         CLOUDY    74  32  21 SW3       29.91S
W YELLOWSTONE  CLOUDY    66  28  24 S10       30.09S
ENNIS          CLEAR     73  27  17 S17G24    30.00R
THREE FORKS      N/A     78  78 100 CALM      29.86R
TWIN BRIDGES     N/A     76  33  20 SE5       29.91S
$$

MTZ009-010-012-014-046-048-049-054-280300-
EAST SLOPES AND CENTRAL MONTANA

CITY           SKY/WX    TMP DP  RH WIND       PRES   REMARKS
CUT BANK       CLOUDY    74  39  28 W17       29.74R
GREAT FALLS    CLOUDY    75  39  27 S8        29.76S
MALMSTROM AFB  CLOUDY    72  44  36 MISG      29.75S
HELENA         CLOUDY    81  35  19 W13G20    29.79F
CHOTEAU          N/A     77  36  22 W15       29.78R
CONRAD           N/A     72  42  33 SE3       29.79F
$$

MTZ011-013-016-021-045-047-050-051-280300-
NORTH CENTRAL MONTANA

CITY           SKY/WX    TMP DP  RH WIND       PRES   REMARKS
HAVRE          MOCLDY    77  39  25 W5        29.68R
LEWISTOWN      MOCLDY    69  41  36 S6        29.82F
N BAR RANCH      N/A     72  34  25 W3        29.87S
CHINOOK          N/A     75  45  33 CALM      29.67R
$$

MTZ017>020-022>027-061-062-280300-
NORTHEAST MONTANA

CITY           SKY/WX    TMP DP  RH WIND       PRES   REMARKS
GLASGOW        CLOUDY    72  44  36 S10       29.72S
JORDAN           N/A     73  45  36 CALM      29.75R
SIDNEY         CLEAR     70  48  45 CALM      29.77S
WOLF POINT     CLOUDY    73  47  39 CALM      29.74R
POPLAR           N/A     75  43  31 SE3       29.74S
SCOBEY           N/A     72  41  32 CALM      29.77S
$$

MTZ028>42-056>058-280300-
SOUTHCENTRAL AND SOUTHEAST MONTANA

CITY           SKY/WX    TMP DP  RH WIND       PRES   REMARKS
BAKER          CLEAR     68  48  48 SE5       29.86R
BILLINGS       MOCLDY    75  38  26 W3        29.82R
LIVINGSTON     CLOUDY    75  31  19 SW13      29.87R
MILES CITY     CLEAR     78  35  21 CALM      29.79S
EKALAKA          N/A     73  41  31 SE5       29.89R
FORSYTH          N/A     73  39  29 SE3       29.78S
LAUREL           N/A     75  38  26 CALM      29.84
ROUNDUP          N/A     80  31  17 S5        29.75R
$$

REGIONAL REPORTS...DAKOTAS

CITY           SKY/WX    TMP DP  RH WIND       PRES   REMARKS
WILLISTON      CLEAR     75  43  31 SE7       29.79S
MINOT          CLEAR     68  46  45 SE7       29.85S
DICKINSON      CLEAR     66  43  43 SE12      29.85S
CROSBY           N/A     63  45  51 SE8       29.83R
WATFORD CITY     N/A     68  46  45 SE10      29.82S
BISMARCK       CLEAR     63  54  72 SE6       29.88S
GRAND FORKS    CLEAR     62  57  83 S7        29.92R
FARGO          MOCLDY    63  56  78 E9        29.97R
BUFFALO SD       N/A     70  50  49 SE12      29.82R
RAPID CITY     PTCLDY    70  51  51 SE5       29.90S
$$

REGIONAL REPORTS...WYOMING/IDAHO/WASHINGTON

CITY           SKY/WX    TMP DP  RH WIND       PRES   REMARKS
GILLETTE       CLEAR     70  37  29 N9        29.92R
SHERIDAN       CLEAR     71  45  39 SE5       29.89R
BUFFALO WY     CLEAR     68  36  30 W5        29.97S
CODY           CLEAR     72  32  23 SE12      29.95R
YELLOWSTONE LA   N/A     56  28  34 CALM      30.21R
IDAHO FALLS    CLOUDY    76  32  20 S10       29.98S
SALMON         CLEAR     79  34  19 SW10      29.82R
BOISE          CLEAR     87  31  13 N6        29.84F
SPOKANE        CLOUDY    78  47  33 W24G30    29.75R
$$

REGIONAL REPORTS...ALBERTA

CITY           SKY/WX    TMP DP  RH WIND       PRES   REMARKS
EDMONTON       PTCLDY    57  54  88 W9        29.64R
CALGARY        MOCLDY    54  46  76 N13G18    29.72R
LETHBRIDGE     MOCLDY    75  43  31 W22       29.66R
MEDICINE HAT   MOCLDY    73  48  40 S8        29.60R
WATERTON GATE    N/A     68  41  37 SW9G18      N/A
CARDSTON         N/A     72  41  33 W9          N/A
MILK RIVER       N/A     73  41  31 SW14G23     N/A
$$

REGIONAL REPORTS...SASKATCHEWAN

CITY           SKY/WX    TMP DP  RH WIND       PRES   REMARKS
SWIFT CURRENT  CLOUDY    68  50  52 S10       29.63F
REGINA         MOCLDY    68  45  42 SE13      29.73S
SASKATOON      MOCLDY    72  52  49 SE14G20   29.62F
CYPRESS HILLS    N/A     66  39  37 W7          N/A
VAL MARIE        N/A     73  41  31 S12         N/A
ROCKGLEN         N/A     68  43  40 S8          N/A
ASSINIBOIA       N/A     63  59  88 SW7         N/A
$$




USA.gov is the U.S. government's official web portal to all federal, state and local government web resources and services.